Regional Weather Roundup
Issued by NWS Cleveland, OH

Home | Current Version | Previous Version | Text Only | Print | Product List | Glossary Off
Versions: 1 2 3 4 5 6 7 8 9 10 11 12 13 14 15 16 17 18 19 20 21 22 23 24 25 26 27 28 29 30 31 32 33 34 35 36 37 38 39 40 41 42 43 44 45 46 47 48 49 50

000
ASUS41 KCLE 241712
RWRCLE
OHIO REGIONAL WEATHER ROUNDUP
NATIONAL WEATHER SERVICE WILMINGTON, OH
1200 PM EST SAT FEB 24 2018

NOTE: "FAIR" INDICATES FEW OR NO CLOUDS BELOW 12,000 FEET WITH NO
SIGNIFICANT WEATHER AND/OR OBSTRUCTIONS TO VISIBILITY.

OHZ001>008-015>018-024>027-034-035-043-044-241800-
   NORTHWEST OHIO

CITY           SKY/WX    TMP DP  RH WIND       PRES   REMARKS
DEFIANCE       LGT RAIN  38  35  89 E12       30.17F
FINDLAY        LGT RAIN  39  35  86 E14       30.14F FOG
TOLEDO EXPRESS LGT RAIN  38  35  89 E14G22    30.18F
TOLEDO EXEC    LGT RAIN  38  32  79 E13G21    30.19F
LIMA           LGT RAIN  41  40  96 E13       30.11F
$$

OHZ009>014-019>023-028>033-038-089-241800-
   NORTHEAST OHIO

CITY           SKY/WX    TMP DP  RH WIND       PRES   REMARKS
CLE-HOPKINS    LGT RAIN  40  36  86 E8        30.21F
CLE-LAKEFRONT  CLOUDY    37  33  85 NE9       30.18F
CUY CO. ARPT   CLOUDY    41  36  81 E9        30.20S
LORAIN-ELYRIA  LGT RAIN  38  32  79 NE13      30.19S
ASHTABULA      CLOUDY    40  34  79 NE6       30.20F
AKRON-CANTON   RAIN      43  39  86 NE7       30.15F FOG
WOOSTER        LGT RAIN  43  42  97 NE8       30.16F FOG
MANSFIELD      LGT RAIN  40  40 100 N5        30.16R FOG
YOUNGSTOWN     RAIN      40  38  93 N8        30.17S FOG
$$

OHZ042-051>053-060>062-070>072-077>081-241800-
  SOUTHWEST OHIO

CITY           SKY/WX    TMP DP  RH WIND       PRES   REMARKS
CINC-COVINGTON CLOUDY    50  49  96 NE12      30.07F
CINC-LUNKEN    CLOUDY    51  49  92 N8        30.08F
HAMILTON       LGT RAIN  50  48  93 E7        30.09F
DAYTON         LGT RAIN  46  46 100 E8        30.11F
WRIGHT-PAT AFB LGT RAIN  47  45  91 NE9       30.10F
DAYTON GENERAL LGT RAIN  49  46  90 NE10      30.09F
WILMINGTON     LGT RAIN  47  47 100 E12       30.08F FOG
$$

OHZ036-037-039>041-045>050-054>059-063>069-073>076-082>088-241800-
  CENTRAL AND SOUTHEAST OHIO

CITY           SKY/WX    TMP DP  RH WIND       PRES   REMARKS
COLUMBUS       LGT RAIN  49  48  97 NE5       30.13R
OSU AIRPORT    LGT RAIN  47  46  97 NE8       30.13S
BOLTON FIELD   RAIN      46  46 100 NE6       30.14R
RICKENBACK AFB RAIN      46  46 100 NE9       30.11S
NEWARK         HVY RAIN  47  45  93 N6        30.14R FOG
MARION         LGT RAIN  42  40  92 NE7       30.16F FOG
LANCASTER      RAIN      48  47  96 N8        30.13R FOG
ZANESVILLE     CLOUDY    49  44  83 NE7       30.11F
NEW PHILLY     CLOUDY    47  45  93 E6        30.14F
$$




USA.gov is the U.S. government's official web portal to all federal, state and local government web resources and services.